• In Hungary
  • List of Countries
  • For 7 days
  • Water Temperature
  • Satellite Maps
  • Weather Map
  • News
  • Weather Widgets
  • user-avatar
    Login

    Hourly Weather Rowne

    Today, 24 September, Monday

    Time Temperature Precipitation Wind Pressure Humidity
    00:00 +12°C° 0.2 mm 9 mps 725 mmHg 69%
    01:00 +13°C° 0 mm 4 mps 724 mmHg 78%
    02:00 +13°C° 1.3 mm 5 mps 724 mmHg 82%
    03:00 +11°C° 1.3 mm 6 mps 725 mmHg 86%
    04:00 +10°C° 1.3 mm 7 mps 725 mmHg 90%
    05:00 +9°C° 0.5 mm 7 mps 727 mmHg 89%
    06:00 +8°C° 0.5 mm 7 mps 728 mmHg 88%
    07:00 +6°C° 0 mm 7 mps 730 mmHg 87%
    08:00 +6°C° 0.2 mm 7 mps 731 mmHg 85%
    09:00 +8°C° 0.2 mm 7 mps 732 mmHg 82%
    10:00 +8°C° 0.2 mm 7 mps 733 mmHg 80%
    11:00 +7°C° 0.1 mm 8 mps 733 mmHg 73%
    12:00 +9°C° 0.1 mm 8 mps 734 mmHg 66%
    13:00 +10°C° 0.1 mm 8 mps 734 mmHg 59%
    14:00 +10°C° 0 mm 8 mps 735 mmHg 59%
    15:00 +9°C° 0 mm 7 mps 735 mmHg 58%
    16:00 +9°C° 0 mm 7 mps 735 mmHg 58%
    17:00 +8°C° 0 mm 6 mps 736 mmHg 63%
    18:00 +7°C° 0 mm 5 mps 736 mmHg 68%
    19:00 +6°C° 0 mm 4 mps 736 mmHg 73%
    20:00 +6°C° 0.1 mm 4 mps 737 mmHg 75%
    21:00 +5°C° 0.1 mm 5 mps 737 mmHg 76%
    22:00 +5°C° 0.1 mm 5 mps 737 mmHg 78%
    23:00 +5°C° 0.1 mm 5 mps 738 mmHg 80%

    Tomorrow, 25 September, Tuesday

    Time Temperature Precipitation Wind Pressure Humidity
    00:00 +5°C° 0.1 mm 5 mps 738 mmHg 81%
    01:00 +4°C° 0.1 mm 4 mps 738 mmHg 82%
    02:00 +4°C° 0 mm 4 mps 739 mmHg 84%
    03:00 +4°C° 0 mm 4 mps 739 mmHg 85%
    04:00 +3°C° 0 mm 4 mps 739 mmHg 86%
    05:00 +4°C° 0 mm 4 mps 740 mmHg 85%
    06:00 +3°C° 0 mm 5 mps 741 mmHg 83%
    07:00 +3°C° 0 mm 5 mps 741 mmHg 81%
    08:00 +5°C° 0 mm 6 mps 742 mmHg 74%
    09:00 +7°C° 0 mm 6 mps 742 mmHg 67%
    10:00 +9°C° 0 mm 6 mps 743 mmHg 60%
    11:00 +9°C° 0.2 mm 6 mps 743 mmHg 57%
    12:00 +10°C° 0.2 mm 6 mps 743 mmHg 55%
    13:00 +10°C° 0.2 mm 6 mps 743 mmHg 53%
    14:00 +10°C° 0.1 mm 6 mps 744 mmHg 54%
    15:00 +9°C° 0.1 mm 5 mps 744 mmHg 56%
    16:00 +10°C° 0.1 mm 4 mps 744 mmHg 58%
    17:00 +8°C° 0 mm 4 mps 745 mmHg 61%
    18:00 +7°C° 0 mm 3 mps 745 mmHg 65%
    19:00 +6°C° 0 mm 2 mps 746 mmHg 68%
    20:00 +5°C° 0 mm 2 mps 746 mmHg 70%
    21:00 +4°C° 0 mm 2 mps 747 mmHg 71%
    22:00 +4°C° 0 mm 2 mps 747 mmHg 73%
    23:00 +3°C° 0 mm 2 mps 747 mmHg 75%

    Day after tomorrow, 26 September, Wednesday

    Time Temperature Precipitation Wind Pressure Humidity
    00:00 +3°C° 0 mm 2 mps 747 mmHg 77%
    01:00 +3°C° 0 mm 1 mps 748 mmHg 80%
    02:00 +3°C° 0 mm 1 mps 748 mmHg 81%
    03:00 +3°C° 0 mm 1 mps 748 mmHg 83%
    04:00 +2°C° 0 mm 1 mps 748 mmHg 84%
    05:00 +3°C° 0 mm 1 mps 748 mmHg 80%
    06:00 +4°C° 0 mm 1 mps 748 mmHg 77%
    07:00 +5°C° 0 mm 1 mps 749 mmHg 73%
    08:00 +7°C° 0 mm 1 mps 749 mmHg 63%
    09:00 +10°C° 0 mm 1 mps 749 mmHg 54%
    10:00 +12°C° 0 mm 2 mps 749 mmHg 44%
    11:00 +13°C° 0 mm 2 mps 748 mmHg 42%
    12:00 +14°C° 0 mm 1 mps 748 mmHg 40%
    13:00 +15°C° 0 mm 1 mps 747 mmHg 37%
    14:00 +14°C° 0 mm 1 mps 747 mmHg 41%
    15:00 +14°C° 0 mm 1 mps 746 mmHg 44%
    16:00 +14°C° 0 mm 1 mps 746 mmHg 47%
    17:00 +12°C° 0 mm 1 mps 745 mmHg 49%
    18:00 +11°C° 0 mm 1 mps 745 mmHg 50%
    19:00 +9°C° 0 mm 1 mps 745 mmHg 52%
    20:00 +8°C° 0 mm 2 mps 745 mmHg 53%
    21:00 +8°C° 0 mm 2 mps 745 mmHg 54%
    22:00 +9°C° 0 mm 2 mps 745 mmHg 55%
    23:00 +8°C° 0 mm 2 mps 745 mmHg 57%

    27 September, Thursday

    Time Temperature Precipitation Wind Pressure Humidity
    00:00 +8°C° 0 mm 2 mps 744 mmHg 59%
    01:00 +7°C° 0 mm 2 mps 744 mmHg 61%
    02:00 +7°C° 0 mm 3 mps 744 mmHg 61%
    03:00 +7°C° 0 mm 3 mps 744 mmHg 61%
    04:00 +7°C° 0 mm 3 mps 743 mmHg 60%
    05:00 +7°C° 0 mm 3 mps 743 mmHg 59%
    06:00 +8°C° 0 mm 3 mps 743 mmHg 58%
    07:00 +8°C° 0 mm 3 mps 743 mmHg 57%
    08:00 +10°C° 0 mm 3 mps 743 mmHg 53%
    09:00 +12°C° 0 mm 4 mps 743 mmHg 49%
    10:00 +14°C° 0 mm 4 mps 743 mmHg 45%
    11:00 +15°C° 0 mm 4 mps 742 mmHg 45%
    12:00 +17°C° 0 mm 4 mps 742 mmHg 45%
    13:00 +18°C° 0 mm 4 mps 742 mmHg 45%
    14:00 +18°C° 0 mm 4 mps 741 mmHg 48%
    15:00 +18°C° 0 mm 3 mps 741 mmHg 52%
    16:00 +18°C° 0 mm 3 mps 741 mmHg 55%
    17:00 +16°C° 0 mm 3 mps 741 mmHg 58%
    18:00 +14°C° 0 mm 2 mps 741 mmHg 61%
    19:00 +13°C° 0 mm 2 mps 741 mmHg 65%
    20:00 +12°C° 0 mm 2 mps 741 mmHg 66%
    21:00 +12°C° 0 mm 2 mps 741 mmHg 67%
    22:00 +10°C° 0 mm 2 mps 740 mmHg 67%
    23:00 +10°C° 0 mm 2 mps 740 mmHg 68%

    28 September, Friday

    Time Temperature Precipitation Wind Pressure Humidity
    00:00 +10°C° 0 mm 2 mps 740 mmHg 69%
    01:00 +10°C° 0 mm 2 mps 739 mmHg 69%
    02:00 +9°C° 0 mm 2 mps 739 mmHg 70%
    03:00 +9°C° 0 mm 2 mps 739 mmHg 71%
    04:00 +9°C° 0 mm 2 mps 738 mmHg 72%
    05:00 +10°C° 0 mm 2 mps 738 mmHg 70%
    06:00 +10°C° 0 mm 2 mps 738 mmHg 69%
    07:00 +12°C° 0 mm 2 mps 738 mmHg 68%
    08:00 +14°C° 0 mm 2 mps 738 mmHg 62%
    09:00 +17°C° 0 mm 2 mps 737 mmHg 57%
    10:00 +19°C° 0 mm 3 mps 737 mmHg 51%
    11:00 +20°C° 0 mm 3 mps 737 mmHg 50%
    12:00 +21°C° 0 mm 3 mps 737 mmHg 48%
    13:00 +21°C° 0 mm 3 mps 736 mmHg 46%
    14:00 +21°C° 0 mm 3 mps 736 mmHg 49%
    15:00 +20°C° 0 mm 2 mps 735 mmHg 52%
    16:00 +19°C° 0 mm 2 mps 735 mmHg 55%
    17:00 +18°C° 0 mm 2 mps 735 mmHg 58%
    18:00 +16°C° 0 mm 1 mps 735 mmHg 62%
    19:00 +14°C° 0 mm 1 mps 735 mmHg 65%
    20:00 +13°C° 0 mm 1 mps 735 mmHg 67%
    21:00 +13°C° 0 mm 1 mps 735 mmHg 68%
    22:00 +12°C° 0 mm 1 mps 735 mmHg 70%
    23:00 +12°C° 0 mm 1 mps 735 mmHg 72%

    29 September, Saturday

    Time Temperature Precipitation Wind Pressure Humidity
    00:00 +12°C° 0 mm 1 mps 735 mmHg 75%
    01:00 +11°C° 0 mm 1 mps 735 mmHg 77%
    02:00 +11°C° 0 mm 1 mps 735 mmHg 79%
    03:00 +11°C° 0 mm 1 mps 735 mmHg 82%
    04:00 +11°C° 0 mm 1 mps 735 mmHg 84%
    05:00 +10°C° 0.5 mm 2 mps 735 mmHg 86%
    06:00 +10°C° 0.5 mm 3 mps 735 mmHg 88%
    07:00 +10°C° 0.5 mm 4 mps 736 mmHg 90%
    08:00 +10°C° 0.5 mm 4 mps 736 mmHg 89%
    09:00 +8°C° 0.5 mm 4 mps 737 mmHg 87%
    10:00 +9°C° 0.5 mm 3 mps 737 mmHg 85%
    11:00 +10°C° 0 mm 4 mps 738 mmHg 78%
    12:00 +11°C° 0 mm 4 mps 738 mmHg 71%
    13:00 +12°C° 0 mm 4 mps 738 mmHg 64%
    14:00 +11°C° 0 mm 4 mps 738 mmHg 63%
    15:00 +11°C° 0 mm 4 mps 738 mmHg 62%
    16:00 +11°C° 0 mm 4 mps 738 mmHg 62%
    17:00 +10°C° 0 mm 3 mps 739 mmHg 64%
    18:00 +9°C° 0 mm 3 mps 739 mmHg 67%
    19:00 +8°C° 0 mm 2 mps 740 mmHg 69%
    20:00 +7°C° 0 mm 2 mps 740 mmHg 71%
    21:00 +6°C° 0 mm 2 mps 740 mmHg 73%
    22:00 +5°C° 0 mm 2 mps 740 mmHg 75%
    23:00 +5°C° 0 mm 2 mps 740 mmHg 77%
    Show more